www.pogodaiklimat.ru
ПОГОДА в Нью-Касле
Время
и дата
18:56 26.01
19:17 26.01
19:28 26.01
19:56 26.01
20:56 26.01
21:13 26.01
21:56 26.01
22:56 26.01
23:56 26.01
00:56 27.01
01:56 27.01
02:56 27.01
03:56 27.01
04:56 27.01
05:24 27.01
05:56 27.01
06:56 27.01
07:56 27.01
08:20 27.01
08:56 27.01
09:56 27.01
10:56 27.01
11:11 27.01
11:56 27.01
12:14 27.01
12:56 27.01
13:56 27.01
14:56 27.01
15:56 27.01
16:56 27.01
17:56 27.01
18:56 27.01
19:56 27.01
20:56 27.01
21:56 27.01
22:56 27.01
23:56 27.01
00:56 28.01
01:56 28.01
02:56 28.01
03:56 28.01
04:56 28.01
05:56 28.01
06:56 28.01
07:56 28.01
08:56 28.01
09:56 28.01
10:56 28.01
Ветер
(напр.,м/с)
Видим. Явления Облачность Т
(С)
Тd
(С)
f
(%)
Тe
(С)
Тes
(С)
Комфортность P
(гПа)
Po
(гПа)
Тmin
(С)
Tmax
(С)
R
(мм)
R24
(мм)
S
(см)
З 4 8 км слабый снег, дымка 10/10 420 m
[Ns]
0.0 -1.1 92 -6 -6 1014.7 973.4 -0.6 +1.1 0.3
ЮЗ 3 6 км слабый снег, дымка 10/10 240 m
[Ns]
-1.0 -1.0 100 -6 -6 973.8
З 5
{9}
6 км слабый снег, дымка 10/10 240 m
[Ns]
-1.0 -2.0 93 -7 -7 973.8
ЮЗ 5 8 км слабый снег, дымка 10/10 330 m
[Ns]
-1.1 -2.2 92 -8 -8 1015.5 974.1
З 7
{12}
10 км слабый снег, дымка 10/10 390 m
[Ns]
-1.7 -3.3 89 -9 -9 1016.6 975.1
З 8
{10}
10 км слабый снег, дымка 10/10 510 m
[Ns]
-2.0 -3.0 93 -10 -10 975.1
З 5 11 км слабый снег 10/10 450 m
[Ns]
-1.7 -3.3 89 -8 -8 1017.0 975.4
ЮЗ 5
{9}
14 км слабый снег 10/10 450 m
[Ns]
-1.7 -3.9 85 -8 -8 1017.3 975.7
ЮЗ 4 14 км слабый снег 10/10 570 m
[Ns]
-2.2 -4.4 85 -8 -8 1017.6 976.0
З 5
{9}
14 км слабый снег 10/10 570 m
[Ns]
-2.2 -4.4 85 -9 -9 1017.8 976.4 -2.2
З 7 11 км слабый снег 10/10 510 m
[Ns]
-2.2 -4.4 85 -10 -10 1018.1 976.4
ЮЗ 4 10 км слабый снег, дымка 10/10 450 m
[Ns]
-2.2 -3.9 88 -8 -8 1018.6 977.0
ЮЗ 6
{9}
14 км слабый снег 10/10 630 m
[Ns]
-2.2 -5.6 77 -9 -9 1018.8 977.3
ЮЗ 5
{8}
14 км слабый снег 10/10 540 m
[Ns]
-2.8 -5.6 81 -9 -9 1019.1 977.3
ЮЗ 4 14 км слабый снег 10/10 750 m
[Ns]
-3.0 -6.0 80 -9 -9 977.7
ЮЗ 5 16 км 10/10 1500 м -2.8 -7.2 72 -9 -9 1019.8 978.0
ЮЗ 4 14 км слабый снег 10/10 1110 m
[Ns]
-3.9 -8.3 71 -10 -10 1020.8 979.0 -3.9 -2.2 0.3
ЮЗ 5 16 км 10/10 930 м -4.4 -8.9 71 -11 -11 1021.6 979.6
ЮЗ 3 16 км 10/10 810 м -4.0 -9.0 68 -9 -9 980.3
ЮЗ 4 16 км 10/10 810 м -4.4 -8.9 71 -10 -10 1022.6 980.6
ЮЗ 5 14 км слабый снег 10/10 720 m
[Ns]
-4.4 -8.3 74 -11 -11 1023.1 980.9
Ю 4 16 км 10/10 840 м -3.9 -8.9 68 -10 -10 1022.8 980.9
нст 3
{7}
16 км 10/10 900 м -3.0 -9.0 63 -8 -8 980.9
ЮЗ 5 16 км 10/10 900 м -3.3 -8.9 65 -10 -10 1022.2 980.3
ЮЗ 5
{8}
16 км 10/10 840 м -3.0 -9.0 63 -9 -9 979.9
ЮЗ 6
{9}
14 км слабый снег 10/10 840 m
[Ns]
-3.3 -8.9 65 -10 -10 1021.6 979.6 -4.4 -3.3
ЮЗ 4 14 км слабый снег 10/10 780 m
[Ns]
-3.3 -7.8 71 -9 -9 1020.8 979.0
ЮЗ 4 16 км 5/5 780 м -2.2 -7.8 65 -8 -6 1020.4 978.6
Ю 4 16 км ясно -1.7 -7.8 63 -7 -5 1019.4 977.7
нст 3 16 км ясно -1.7 -7.8 63 -6 -5 1019.0 977.3
нст 2 16 км 8/0 3000 m
[Ac]
-1.1 -7.2 63 -4 -4 1018.2 976.7
нст 3 16 км 10/0 3000 m
[Ac]
-0.6 -6.7 63 -5 -5 1017.5 975.7 -3.3 -0.6
Ю 4
{8}
16 км 10/0 2100 m
[Ac]
0.0 -6.7 61 -5 -5 1017.4 975.7
нст 2 16 км 10/10 1800 м +0.6 -6.7 58 -2 -2 1017.3 975.7
Ю 4
{9}
16 км слабый дождь 10/10 1470 m
[Ns]
+1.1 -6.7 56 -4 -4 1017.1 975.4
нст 3 16 км слабый дождь 10/10 1290 m
[Ns]
+1.7 -5.0 61 -2 -2 1017.0 975.4
нст 3 16 км 10/10 1290 м +2.2 -5.0 59 -1 -1 1016.7 975.4
Ю 4 16 км 10/10 1290 м +2.8 -3.9 61 -2 -2 1016.6 975.1 -0.6 +2.8
ЮЗ 5 16 км 8/8 1170 м +3.3 -3.3 62 -1 -1 1017.4 976.0
ЮЗ 4 16 км 10/10 1290 м +3.3 -2.8 64 -1 -1 1018.8 977.3
З 8
{11}
16 км 8/8 1170 м +3.9 -2.2 64 -2 -2 1019.6 978.3
З 8
{11}
16 км 2/2 990 м +3.3 -2.8 64 -3 -3 1020.7 979.3
З 3 16 км ясно +2.2 -2.8 69 -2 -2 1022.4 980.6
ЮЗ 3 16 км ясно +1.7 -3.3 69 -2 -2 1023.6 981.9 +1.7 +4.4
ЮЗ 3 16 км ясно +0.6 -3.3 75 -4 -4 1024.8 982.9
ЮЗ 2 16 км ясно +1.7 -2.8 72 -1 -1 1025.6 983.8
ЮЗ 2 16 км ясно +2.8 -2.2 70 0 +1 1026.4 984.8
ЮЗ 4
{8}
16 км 2/0 3600 m
[Ac]
+3.9 -1.7 67 0 +2 1026.6 984.8
Местоположение метеостанции New Castle Municipal Airport: широта 41.0253 долгота -80.4133 высота над уровнем моря 327 м.
В архиве по умолчанию представлена погода в Нью-Касле за последние 1-2 суток. Обновление информации о фактической погоде в базе происходит ежечасно! Архивные данные за месяц целиком и за предыдущие месяцы Вы можете получить, выбрав интересующий диапазон дат из раскрывающегося списка и нажав кнопку "Ввод!".
Внимание! Архив погоды МЕТАР в базе сайта по станциям, не включенным в климатический монитор, хранится не более 60 дней. Нет смысла пытаться выбрать более раннюю дату.
*Определитесь, кто Вы:
Внимание! Время в таблицах - местное (без учета летнего времени). Для получения всемирного времени необходимо вычесть поправку, которая равна -5 ч.
Смотрите также архив погоды в соседних городах и на ближайших метеорологических станциях:
Партнеры нашего сайта:      
Пояснения к столбцам:
  • Ветер - указаны скорость ветра в м/с - средняя за 10 мин, порывы в срок и между сроками (в фигурных скобках) и направление, откуда дует ветер: С - северный,
  • СВ - северо-восточный, В - восточный, ЮВ - юго-восточный, Ю - южный, ЮЗ - юго-западный, З - западный, СЗ - северо-западный.
  • Видимость - горизонтальная дальность видимости в метрах или километрах. При видимости от 1 до 10 км при отсутствии осадков обычно наблюдается дымка, при ухудшении видимости до 1 км и менее - туман. В сухую погоду видимость может ухудшаться дымом, пылью или мглою.
  • Явления - указаны атмосферные явления, наблюдавшиеся в срок или в последний час перед сроком; фигурными скобками обозначены явления, наблюдавшиеся между сроками (за 1-3 часа до срока); квадратными скобками обозначены град или гололедные отложения с указанием их диаметра в мм.
  • Облачность - указаны через наклонную черту общая и нижняя облачность в баллах и высота нижней границы облаков в метрах; квадратными скобками обозначены формы облаков: Ci - перистые, Cs - перисто-слоистые, Cc - перисто-кучевые, Ac - высококучевые, As - высокослоистые, Sc - слоисто-кучевые, Ns - слоисто-дождевые, Cu - кучевые, Cb - кучево-дождевые. Подробнее классификацию облаков см. в Атласе облаков (PDF).
  • T - Температура воздуха - температура, измеренная на высоте 2 м над землей.
  • Td - Температура точки росы - температура, при понижении до которой содержащийся в воздухе водяной пар достигнет насыщения.
  • f - Относительная влажность воздуха - влажноcть воздуха, измеренная на высоте 2 м над землей.
  • Te - Эффективная температура - температура, которую ощущает одетый по сезону человек в тени. Характеристика душности погоды. При расчете учитывается влияние влажности воздуха и скорости ветра на теплоощущения человека.
  • Tes - Эффективная температура на солнце - температура, которую ощущает человек, с поправкой на солнечный нагрев. Характеристика знойности погоды. Зависит от высоты солнца над горизонтом, облачности и скорости ветра. Ночью, в пасмурную погоду, а также при ветре 12 м/с и более поправка равна нулю.
  • P - Атмосферное давление - приведенное к уровню моря атмосферное давление.
  • Po - Атмосферное давление - измеренное на уровне метеостанции атмосферное давление.
  • Tmin - Минимальная температура - минимум температуры воздуха на высоте 2 м над землей.
  • Tmax - Максимальная температура - максимум температуры воздуха на высоте 2 м над землей.
  • R - Количество осадков - Количество выпавших осадков за период времени, мм. При наведении курсора мыши на число - период времени, за который выпало указанное количество осадков.
  • R24 - Количество осадков - Количество выпавших осадков за 24 часа, мм.
  • S - Снежный покров - Высота снежного покрова, см. При наведении курсора мыши на число - состояние снежного покрова и степень покрытия местности в баллах.